Location: Taupo
(38.6830°S, 176.0830°E)
Time: 02:23:08
(UTC+13:00)

CENTAUR R/B - Pass Details

Date: 24 January 2019
Orbit: 791 x 1397 km, 63.5° (Epoch: 16 February)

Event Time Altitude Azimuth Distance (km) Brightness Sun altitude
Exits shadow 23:28:59 36° 80° (E) 1,881 3.6 -25.8°
Drops below altitude 10° 23:34:45 10° 130° (SE) 3,054 5.2 -26.3°
Sets 23:37:30 0° 138° (SE) 3,928 5.9 -26.6°
